Location: Olda
(45.8833°N, 9.5500°E)
Time: 07:50:34
(UTC+00:00)

Cosmos 1707 Rocket - Pass Details

Date: 03 March 2021
Orbit: 604 x 632 km, 82.5° (Epoch: 10 April)

Event Time Altitude Azimuth Distance (km) Brightness Sun altitude
Rises 17:57:29 0° 347° (NNW) 2,904 7.2 -8.8°
Reaches altitude 10° 17:59:46 10° 343° (NNW) 1,989 6.4 -9.2°
Maximum altitude 18:04:03 55° 266° (W) 739 4.4 -10.0°
Drops below altitude 10° 18:08:17 10° 188° (S) 1,957 6.2 -10.7°
Sets 18:10:30 0° 184° (S) 2,852 7.0 -11.1°
